Weather in Arbuzova-Shchilinka

Russia / Pskov Oblast     57˚51′14″N   29˚41′04″E
temp.,
°C
wind,
m/s
gust,
m/s
humid.,
%
clouds,
%
prec.,
mm/h
press.,
hPa
HPBL,
m
15 january, fri
fri1500:00−17˚nne4888100 0.0 1013471
03:00−18˚n4887100 0.0 1014460
06:00−18˚nne3888100 0.0 1013517
09:00−18˚nne3789100 0.0 1014582
12:00−17˚nne3688100 0.1 1014622
15:00−16˚nne3692100 0.5 1014631
18:00−17˚nne3693100 0.6 1014694
21:00−18˚ne3590100 0.9 1015674
16 january, sat
sat1600:00−18˚ne2590100 0.1 1015557
03:00−18˚ne3593100 0.3 1015524
06:00−18˚ne3590100 0.2 1015465
09:00−20˚nne259694 0.2 1016241
12:00−19˚nne138882 0.0 1017251
15:00−17˚n248791 0.0 1017321
18:00−17˚nnw2591100 0.0 1017311
21:00−17˚nnw2694100 0.0 1017286
17 january, sun
sun1700:00−17˚nnw259699 0.0 1018190
03:00−19˚nnw229584 0.0 101832
06:00−19˚nw129737 0.0 101823
09:00−18˚wnw129740 0.0 101921
12:00−14˚w239356 0.0 1020135
15:00−12˚w259157 0.0 1019221
18:00−13˚w259676 0.1 1019187
21:00−12˚w269484 0.2 1019231
18 january, mon
mon1800:00−11˚w259597 0.1 1019202
03:00−12˚wsw249794 0.1 101991
06:00−11˚w249697 0.1 1018122
09:00−11˚w229790 0.1 101935
12:00−8˚wsw129487 0.2 1019125
15:00−7˚w139386 0.3 1019195
18:00−9˚wsw129791 0.0 101921
21:00−10˚w129793 0.1 101921
19 january, tue
tue1900:00−9˚w129791 0.1 102023
03:00−10˚wsw129793 0.1 102021
06:00−11˚sw129786 0.0 101922
09:00−12˚sw229568 0.1 102032
12:00−10˚sw24912 0.0 1020169
15:00−8˚sw249115 0.0 1020267
18:00−12˚ssw229539 0.0 102028
21:00−12˚s249520 0.0 102085